Temperature
18 18 18 18 18 18 18 18 18 18 18 18 18 18 18 18 18 18 18 18 18 18 18 18 18 18 17 17 17 17 17 17 17 17 17 17 17 16 16 16 16 16 16
18 18 18 18 18 18 18 18 18 18 18 18 18 18 18 18 18 18 18 18 18 18 18 18 18 18 18 17 17 17 17 17 17 17 17 17 17 16 16 16 16 16 16
18 18 18 18 18 18 18 18 18 18 18 18 18 18 18 18 18 18 18 18 18 18 18 18 18 18 18 17 17 17 17 17 17 17 17 17 17 17 16 16 16 16 16
18 18 18 18 18 18 18 18 18 18 18 18 18 18 18 18 18 18 18 18 18 18 18 18 18 18 18 17 17 17 17 17 17 17 17 17 17 17 16 16 16 16 16
18 18 18 18 18 18 18 18 18 18 18 18 18 18 18 18 18 18 18 18 18 18 18 18 18 18 17 17 17 17 17 17 17 17 17 17 17 16 16 16 16 16 16
18 18 18 18 18 18 18 18 18 18 18 18 18 18 18 18 18 18 18 18 18 18 18 18 18 17 17 17 17 17 17 17 17 17 17 17 17 16 16 16 16 16 16
18 18 18 18 18 18 18 18 18 18 18 18 18 18 18 18 18 18 18 18 18 18 18 18 17 17 17 17 17 17 17 17 17 17 17 17 17 16 16 16 16 16 16
18 18 18 18 18 18 18 18 18 18 18 18 18 18 18 18 18 18 18 18 18 18 18 17 17 17 17 17 17 17 17 17 17 17 17 16 16 16 16 16 16 16 16
18 18 18 18 18 18 18 18 18 18 18 18 18 18 18 18 18 18 18 18 18 18 18 17 17 17 17 17 17 17 17 17 17 16 16 16 16 16 16 16 16 16 16
18 18 18 18 18 18 18 18 18 18 18 18 18 18 18 18 17 17 18 18 18 18 17 17 17 17 17 17 17 17 17 17 17 17 16 16 16 16 16 16 16 16 16
18 18 18 18 18 18 18 18 18 18 18 18 18 18 18 18 18 17 17 17 17 17 17 17 17 17 17 17 17 17 17 17 17 16 16 16 16 16 16 16 16 16 16
18 18 18 18 18 18 18 18 18 18 18 18 18 18 18 17 18 17 17 17 17 17 17 17 17 17 17 17 16 16 16 16 16 16 16 16 16 16 16 16 16 16 16
18 18 18 18 18 18 18 18 18 17 17 17 17 17 17 17 17 17 17 17 17 17 17 17 17 17 17 17 16 16 16 16 16 16 16 16 16 16 16 16 15 15 15
18 18 18 17 17 17 17 17 17 17 17 17 17 17 17 17 17 17 17 17 17 17 17 17 17 17 16 16 16 16 16 16 16 16 16 16 16 16 15 15 15 15 15
17 17 17 17 17 17 17 17 17 17 17 17 17 17 17 17 17 17 17 17 17 16 16 16 16 16 16 16 16 16 16 16 16 16 16 16 16 16 15 15 15 15 15
17 17 17 17 17 17 17 17 17 17 17 17 17 17 17 17 17 17 17 16 16 16 16 16 16 16 16 16 16 16 16 16 15 15 15 15 15 15 15 15 15 15 15
17 17 17 16 16 16 16 16 16 16 16 16 16 16 16 16 16 16 16 16 16 16 16 16 16 16 15 15 16 15 15 15 15 15 15 15 15 15 15 15 15 15 15
17 17 16 16 16 16 16 16 16 16 16 16 16 16 16 16 16 16 16 16 16 16 16 15 15 15 15 15 15 15 15 15 15 15 15 15 15 15 15 15 15 15 15
16 16 16 16 16 16 16 16 16 15 15 15 15 15 15 15 15 15 15 15 15 15 15 15 15 15 15 15 15 15 15 15 15 15 15 15 15 15 15 15 15 15 15
16 16 16 16 16 16 16 15 15 15 15 15 15 15 15 15 15 15 15 15 15 15 15 15 15 14 14 14 15 14 14 14 15 15 15 15 15 15 15 15 15 15 14
16 16 16 16 15 15 15 15 15 15 15 15 15 14 14 14 14 14 14 14 14 15 14 14 14 14 14 14 14 14 14 14 14 14 14 14 14 15 15 14 14 14 14
15 15 15 15 15 15 15 15 15 15 14 14 14 14 14 14 14 14 14 14 14 14 14 14 14 14 13 13 14 14 14 14 14 14 14 14 14 14 14 14 14 14 14
15 15 15 15 15 15 15 15 15 15 14 14 14 14 14 14 14 14 14 14 14 14 14 14 13 13 13 13 13 14 14 14 14 14 14 14 14 14 14 14 14 14 14
14 14 14 14 14 14 14 14 14 14 14 14 14 14 14 14 13 13 14 14 13 13 13 13 13 13 13 13 13 13 13 13 13 13 13 13 13 13 13 14 14 14 14
14 14 14 14 14 14 14 14 14 14 14 13 13 13 13 13 13 13 13 13 13 13 13 12 13 13 13 13 13 13 13 13 13 13 13 13 13 13 13 13 13 13 13
13 13 13 14 14 14 14 14 14 14 13 13 13 13 13 13 13 12 12 12 12 12 12 12 12 12 12 12 12 12 12 12 12 12 13 12 12 12 12 13 13 13 13
Wind_Speed
1 1 0 1 2 3 4 4 3 3 3 4 5 5 4 4 4 5 7 13 14 14 14 13 13 12 12 11 11 11 11 10 10 10 10 9 9 8 8 7 7 7 7
1 0 0 1 1 2 3 3 3 3 3 3 4 3 3 4 3 5 7 11 13 14 14 14 13 13 12 12 12 12 11 11 10 10 10 10 10 9 9 9 8 8 8
1 0 1 1 2 3 3 2 2 2 3 3 4 4 3 3 3 5 7 8 10 13 15 14 13 13 13 13 13 12 12 11 11 11 10 10 10 10 10 10 10 9 9
0 1 1 1 1 2 2 2 2 2 2 2 2 3 3 3 4 5 6 7 8 9 12 14 13 13 13 12 12 13 12 12 11 11 11 11 11 11 11 11 11 11 10
0 1 0 0 1 1 2 2 2 2 2 2 2 2 2 3 2 3 4 5 6 7 9 13 14 14 13 13 13 12 11 12 11 11 11 11 11 11 11 11 11 11 11
0 1 1 1 1 1 1 1 1 1 2 2 2 1 1 2 2 2 3 4 5 6 8 9 11 11 13 12 12 12 12 12 11 11 10 10 10 10 10 11 11 11 11
0 1 1 0 1 1 1 1 1 1 1 1 1 1 1 1 2 2 2 2 3 5 6 7 8 8 9 12 12 11 10 11 11 11 10 10 9 9 9 10 10 11 12
0 0 0 1 1 0 1 1 1 1 1 1 1 1 0 0 1 1 2 2 3 3 3 5 5 6 6 7 8 10 9 9 9 10 10 10 10 9 9 9 9 10 12
1 2 1 0 0 1 1 2 2 2 2 2 1 1 1 1 0 0 0 1 1 1 2 3 5 7 7 6 7 10 10 10 10 9 9 9 9 9 9 9 10 10 9
1 1 1 1 1 0 0 2 2 1 2 2 2 1 1 1 1 1 1 1 0 1 2 2 2 5 6 6 7 9 11 11 10 9 9 10 10 10 9 10 10 10 11
1 2 2 1 1 1 0 1 1 1 1 1 1 1 1 1 1 1 1 1 1 1 2 2 2 3 4 5 7 8 11 12 11 11 10 10 9 9 9 9 9 10 10
2 2 2 2 2 2 1 1 1 1 1 1 2 1 1 1 1 1 2 2 2 1 1 1 1 2 3 5 6 8 12 12 12 11 10 9 9 9 9 9 9 9 10
2 2 3 2 2 1 1 1 1 1 1 1 2 2 1 1 1 1 1 1 1 1 1 1 1 2 2 4 6 7 9 11 11 11 10 10 9 9 9 9 9 9 9
2 2 2 2 2 2 2 1 1 1 0 1 2 1 1 2 1 1 1 1 1 1 1 2 1 1 2 3 4 7 7 11 11 10 10 10 10 9 9 9 9 9 9
1 2 2 2 2 2 2 2 1 1 1 0 1 1 1 2 2 1 1 1 2 2 2 2 1 1 2 3 5 5 5 8 10 10 10 10 10 10 10 10 9 9 9
2 1 1 1 1 2 2 1 1 1 1 1 1 1 1 2 1 1 2 2 2 2 3 2 2 2 1 1 3 4 5 8 10 11 12 11 11 11 10 10 9 9 9
1 1 2 2 2 2 2 2 1 1 1 1 2 1 1 2 2 2 1 2 2 2 3 2 1 1 1 1 2 3 5 6 6 11 12 12 12 12 11 10 10 10 10
1 1 1 1 2 2 2 2 3 2 1 1 2 2 2 2 2 2 2 2 2 2 2 3 2 2 2 2 3 4 4 5 5 9 12 13 13 13 12 11 11 10 9
1 1 1 1 1 2 2 3 2 2 2 1 1 1 2 2 2 3 3 3 2 3 1 2 3 2 2 2 2 4 3 3 5 7 10 12 13 14 13 12 11 10 10
1 1 1 2 2 2 3 3 3 2 1 2 2 1 1 2 2 3 3 2 2 2 2 2 2 2 2 2 2 3 3 3 4 5 5 7 10 13 14 13 12 11 11
1 1 2 2 2 2 3 3 3 2 1 1 1 1 1 3 4 3 3 3 3 2 2 2 2 2 2 2 3 3 3 3 4 4 3 5 5 6 8 11 12 11 11
2 2 2 2 3 3 6 7 5 3 2 1 2 2 1 2 3 3 3 3 3 3 3 3 3 3 3 2 3 4 3 3 3 3 3 4 4 5 6 7 10 11 11
2 2 2 3 2 4 6 7 7 3 2 1 1 2 2 3 3 3 3 3 3 3 3 3 4 4 4 3 3 4 3 4 4 3 3 4 3 4 4 7 9 11 11
1 1 1 2 2 3 5 6 6 3 2 2 1 1 2 2 3 3 3 3 3 3 3 4 4 4 4 3 3 4 5 5 4 3 3 4 4 3 4 4 9 11 11
1 1 1 1 2 3 4 4 4 2 2 2 1 1 1 1 4 4 3 3 3 4 5 3 2 4 5 5 4 3 3 3 4 3 2 3 4 3 4 3 5 9 10
2 1 1 1 1 1 2 3 4 3 2 3 1 0 1 2 2 3 3 3 3 4 4 5 4 4 4 4 5 4 3 4 4 3 2 2 4 3 3 2 1 3 5
Wind_Direction
192 148 182 193 200 178 171 184 207 204 220 230 227 220 214 227 198 179 168 179 184 189 191 194 195 196 201 203 204 203 203 203 203 203 202 204 205 205 205 205 206 204 206
64 36 213 182 201 180 168 183 198 197 217 223 227 221 217 224 199 174 170 180 187 189 190 193 197 200 204 205 207 208 208 208 208 209 207 207 207 210 212 213 211 206 201
106 220 228 204 187 177 178 190 202 203 217 222 224 215 215 221 198 186 181 181 184 191 194 195 198 201 204 207 209 211 213 213 210 210 210 210 210 213 215 214 211 209 208
209 247 224 176 176 169 158 178 204 212 218 232 235 227 215 210 202 191 189 185 181 186 192 195 197 202 205 208 210 212 213 211 211 213 214 211 210 212 214 215 215 215 214
230 271 260 127 216 166 168 195 176 201 218 237 248 231 213 219 212 197 186 182 178 176 179 189 197 202 208 212 212 211 211 210 210 210 212 212 213 214 213 213 214 216 217
73 281 235 142 239 176 166 144 176 213 218 224 248 285 248 206 204 202 192 171 168 176 182 182 189 200 205 209 213 212 210 207 204 206 207 208 210 213 214 216 216 216 217
33 252 339 98 256 220 160 163 157 235 237 179 112 315 295 186 200 199 191 170 168 170 172 174 183 187 191 207 211 209 209 209 203 203 205 208 211 214 216 218 218 219 220
339 298 109 290 295 270 170 199 190 206 243 190 189 217 219 13 271 216 177 179 174 160 168 169 168 171 180 177 186 194 201 201 203 206 207 209 213 215 216 218 221 225 228
42 350 74 313 265 226 178 219 203 210 234 223 208 202 176 192 337 25 166 140 139 150 170 149 165 172 177 173 175 188 196 199 204 209 208 210 212 216 219 222 226 228 230
28 357 12 337 291 296 159 241 195 232 220 230 223 235 225 157 184 207 343 55 103 199 186 189 153 159 165 167 166 175 187 194 201 209 213 215 216 220 223 225 229 231 230
38 17 31 6 345 337 317 297 302 239 236 246 241 232 212 165 188 181 210 216 247 239 191 180 155 139 154 164 164 175 184 190 196 205 212 218 219 219 222 227 232 233 232
48 37 38 26 11 350 342 340 318 277 283 283 286 278 214 222 211 189 205 207 215 235 188 138 181 157 164 166 180 184 187 189 196 201 206 212 214 215 216 222 229 234 234
49 39 31 32 14 356 355 0 358 300 282 279 270 273 274 266 246 197 184 208 219 229 236 229 201 152 174 156 172 177 182 190 196 201 205 209 211 213 216 222 228 233 235
41 38 42 35 7 1 354 14 2 323 331 298 295 318 317 295 278 236 205 200 241 253 240 227 197 162 149 144 176 173 181 193 197 202 206 208 211 214 218 224 228 231 235
31 47 34 22 14 9 1 16 8 351 10 308 306 313 291 285 278 283 259 219 235 252 256 240 236 214 163 149 170 177 179 195 196 200 206 208 209 214 220 224 228 230 233
17 25 7 8 4 14 358 -0 357 357 6 356 331 342 315 307 290 274 256 255 252 241 251 244 245 226 206 198 196 190 189 197 205 204 204 206 211 216 221 223 226 229 232
3 13 349 349 354 356 344 332 317 334 357 339 319 326 325 320 325 302 281 273 266 251 248 260 238 221 221 221 229 215 201 196 198 202 205 209 214 218 219 220 221 225 229
356 355 352 335 336 348 345 331 322 334 351 339 330 337 324 314 320 314 308 290 282 267 240 253 261 247 244 229 229 241 225 219 211 211 209 210 214 217 217 217 217 221 228
349 346 346 331 336 338 341 333 322 319 331 335 333 320 319 319 308 301 298 294 286 281 257 249 261 259 258 260 258 267 256 241 234 223 214 213 215 215 214 217 217 219 226
12 352 352 350 342 342 345 340 329 315 337 344 346 352 345 327 317 308 297 306 293 293 278 264 262 268 272 276 262 262 268 265 263 243 228 226 217 214 213 213 214 216 222
358 10 354 348 353 347 338 336 322 310 307 301 310 316 22 26 16 348 318 315 302 291 285 283 270 278 276 277 272 263 263 259 262 251 238 231 211 209 212 217 218 218 222
12 12 8 8 2 346 2 3 349 323 324 319 324 326 345 27 14 13 345 311 288 274 277 276 279 278 282 276 284 274 271 265 261 256 250 242 215 214 204 209 210 212 220
17 13 11 14 12 11 14 7 353 329 323 345 357 346 333 355 26 354 348 337 308 268 252 260 276 271 271 274 272 272 272 267 259 258 262 259 249 244 218 214 209 209 215
355 0 7 6 1 9 14 6 350 322 319 329 340 348 356 3 345 354 341 337 323 320 291 266 264 273 271 273 264 265 270 271 264 266 251 260 260 261 253 214 213 208 216
334 324 332 355 0 4 13 6 357 317 325 321 322 15 24 355 351 359 349 327 323 322 330 328 291 274 263 268 282 292 288 286 278 267 256 258 265 266 255 232 218 216 220
281 281 300 300 336 359 8 2 350 328 330 319 309 277 355 337 322 335 320 311 313 312 321 327 319 297 270 253 250 249 268 278 278 274 269 264 269 273 274 261 242 227 230
Height
1526 1526 1525 1525 1526 1527 1528 1530 1531 1533 1535 1537 1538 1540 1541 1542 1543 1543 1544 1544 1545 1546 1547 1548 1549 1549 1550 1551 1552 1553 1554 1555 1556 1557 1558 1559 1561 1562 1562 1563 1564 1565 1566
1525 1525 1525 1524 1525 1526 1528 1529 1530 1532 1534 1535 1537 1538 1539 1540 1541 1541 1542 1542 1543 1544 1545 1546 1547 1548 1549 1550 1551 1552 1553 1554 1555 1555 1556 1558 1559 1560 1561 1562 1562 1563 1564
1525 1525 1524 1524 1524 1525 1527 1528 1530 1531 1532 1534 1535 1536 1537 1538 1539 1539 1540 1541 1541 1542 1543 1544 1545 1546 1547 1548 1549 1550 1551 1552 1553 1554 1554 1555 1556 1557 1559 1560 1560 1561 1563
1525 1525 1525 1524 1525 1525 1527 1528 1529 1530 1531 1532 1533 1534 1535 1536 1537 1537 1538 1539 1539 1540 1541 1543 1543 1544 1545 1546 1547 1548 1549 1550 1550 1551 1552 1553 1554 1555 1556 1557 1558 1560 1561
1525 1524 1525 1525 1525 1526 1527 1528 1529 1529 1530 1531 1532 1533 1533 1534 1535 1536 1536 1537 1538 1539 1539 1541 1541 1542 1543 1544 1544 1545 1546 1547 1548 1549 1550 1551 1552 1553 1554 1555 1556 1557 1558
1525 1524 1525 1525 1525 1526 1526 1527 1528 1528 1529 1530 1531 1531 1531 1532 1533 1534 1535 1536 1536 1537 1538 1539 1539 1540 1541 1541 1542 1543 1544 1544 1545 1546 1547 1548 1549 1550 1551 1552 1553 1554 1555
1525 1525 1524 1525 1525 1525 1526 1526 1526 1527 1528 1529 1529 1529 1530 1530 1531 1533 1534 1534 1534 1536 1536 1537 1537 1538 1538 1539 1540 1541 1542 1542 1542 1543 1544 1545 1546 1547 1548 1550 1551 1552 1552
1525 1525 1524 1524 1524 1525 1525 1525 1526 1526 1527 1528 1528 1528 1529 1531 1531 1531 1532 1533 1534 1534 1535 1535 1536 1536 1537 1536 1537 1538 1539 1539 1540 1541 1542 1543 1544 1545 1545 1546 1547 1548 1549
1524 1524 1524 1524 1524 1524 1524 1524 1525 1525 1526 1526 1527 1528 1529 1529 1529 1530 1531 1532 1532 1533 1533 1534 1534 1534 1534 1535 1536 1536 1537 1537 1538 1539 1539 1540 1541 1541 1542 1543 1544 1545 1546
1524 1524 1524 1523 1523 1523 1523 1524 1524 1524 1525 1525 1526 1527 1528 1528 1528 1529 1530 1531 1531 1531 1532 1533 1533 1533 1533 1533 1534 1534 1534 1535 1536 1536 1537 1537 1538 1539 1539 1540 1541 1542 1543
1524 1523 1523 1523 1523 1523 1523 1523 1523 1523 1523 1524 1524 1525 1526 1526 1527 1528 1528 1529 1530 1530 1530 1531 1531 1532 1532 1532 1532 1532 1532 1533 1533 1534 1534 1534 1535 1535 1536 1537 1538 1539 1540
1523 1523 1522 1522 1522 1522 1522 1522 1521 1522 1522 1522 1523 1524 1524 1525 1525 1526 1526 1527 1528 1528 1529 1529 1530 1530 1530 1529 1530 1530 1530 1530 1531 1531 1531 1532 1532 1532 1533 1534 1535 1535 1536
1523 1522 1522 1522 1521 1521 1521 1521 1520 1520 1520 1521 1521 1522 1523 1523 1524 1524 1525 1525 1525 1526 1527 1527 1527 1527 1527 1527 1527 1527 1527 1528 1528 1529 1529 1529 1529 1529 1530 1530 1531 1532 1532
1522 1522 1521 1521 1520 1520 1520 1520 1519 1519 1519 1519 1520 1520 1521 1522 1523 1523 1523 1524 1524 1524 1525 1525 1525 1525 1525 1525 1525 1525 1525 1525 1526 1526 1526 1526 1526 1526 1527 1527 1528 1528 1529
1522 1521 1521 1520 1519 1519 1519 1519 1518 1518 1518 1518 1519 1519 1519 1520 1521 1521 1521 1522 1523 1522 1522 1523 1523 1523 1523 1522 1522 1522 1522 1522 1523 1523 1523 1524 1524 1524 1524 1524 1525 1525 1526
1521 1520 1520 1519 1518 1518 1518 1518 1518 1518 1517 1517 1518 1518 1518 1518 1518 1519 1519 1520 1520 1520 1520 1520 1520 1520 1520 1520 1520 1520 1520 1520 1520 1520 1521 1521 1521 1521 1521 1521 1522 1522 1522
1519 1519 1518 1518 1518 1517 1517 1517 1517 1517 1516 1516 1516 1516 1516 1516 1516 1516 1517 1517 1517 1518 1517 1517 1517 1517 1517 1517 1516 1517 1517 1517 1517 1517 1517 1518 1518 1518 1518 1518 1518 1519 1519
1518 1517 1517 1517 1516 1516 1516 1516 1515 1515 1515 1514 1514 1514 1514 1514 1514 1514 1514 1514 1515 1515 1515 1514 1514 1515 1514 1514 1514 1514 1514 1514 1514 1514 1514 1514 1514 1514 1514 1515 1515 1515 1515
1517 1516 1516 1515 1515 1515 1514 1514 1514 1513 1513 1513 1512 1512 1512 1512 1511 1511 1512 1511 1512 1512 1512 1511 1511 1511 1511 1511 1511 1511 1511 1511 1511 1510 1511 1511 1510 1510 1511 1511 1511 1511 1511
1515 1515 1514 1514 1513 1513 1512 1512 1512 1511 1511 1511 1510 1510 1510 1509 1509 1509 1509 1509 1509 1509 1509 1508 1508 1508 1507 1507 1507 1507 1506 1506 1507 1507 1507 1507 1507 1507 1507 1507 1507 1507 1507
1514 1513 1512 1512 1511 1511 1510 1510 1510 1509 1509 1508 1508 1508 1507 1507 1507 1507 1506 1506 1506 1505 1505 1505 1505 1504 1504 1503 1503 1503 1503 1502 1502 1503 1503 1503 1503 1503 1502 1503 1503 1503 1503
1512 1511 1511 1510 1509 1509 1508 1508 1507 1507 1507 1506 1505 1505 1505 1504 1504 1503 1503 1503 1503 1503 1502 1501 1501 1500 1500 1500 1500 1499 1499 1499 1498 1499 1499 1499 1500 1499 1499 1499 1499 1499 1499
1510 1510 1509 1508 1507 1507 1506 1505 1505 1505 1504 1503 1503 1502 1502 1502 1501 1500 1499 1499 1499 1499 1499 1499 1498 1497 1496 1496 1496 1495 1495 1495 1495 1495 1496 1495 1496 1495 1495 1495 1495 1495 1495
1509 1508 1507 1506 1505 1505 1504 1503 1503 1502 1501 1501 1500 1500 1499 1498 1498 1497 1496 1495 1495 1495 1495 1495 1494 1493 1493 1493 1493 1493 1492 1492 1492 1492 1492 1491 1491 1491 1491 1491 1491 1491 1491
1507 1507 1506 1505 1503 1502 1502 1501 1500 1499 1498 1498 1497 1497 1496 1495 1495 1494 1493 1492 1491 1491 1492 1491 1491 1490 1489 1489 1489 1489 1488 1488 1487 1487 1488 1488 1487 1487 1487 1487 1487 1487 1486
1506 1505 1504 1503 1502 1500 1499 1498 1498 1497 1495 1495 1494 1493 1493 1492 1492 1491 1490 1489 1488 1488 1488 1487 1487 1486 1486 1485 1485 1485 1484 1484 1484 1483 1483 1484 1483 1483 1483 1482 1483 1482 1482